Regional Weather Roundup
Issued by NWS

Home | Current Version | Previous Version | Text Only | Print | Product List | Glossary On
Versions: 1 2 3 4 5 6 7 8 9 10 11 12 13 14 15 16 17 18 19 20 21 22 23 24 25 26 27 28 29 30 31 32 33 34 35 36 37 38 39 40 41 42 43 44 45 46 47 48 49 50
000
ASUS46 KSEW 012210
RWRWA

WASHINGTON REGIONAL WEATHER ROUNDUP
NATIONAL WEATHER SERVICE SEATTLE WA
300 PM PDT WED OCT 01 2014

NOTE:"FAIR" INDICATES FEW OR NO CLOUDS BELOW 12,000 FEET WITH NO
SIGNIFICANT WEATHER AND/OR OBSTRUCTIONS TO VISIBILITY.

WAZ505-507>509-012300-
SEATTLE, TACOMA, EVERETT, AND VICINITY

CITY           SKY/WX    TMP DP  RH WIND       PRES   REMARKS
EVERETT        MOSUNNY   60  48  64 VRB7      30.19F
BOEING FIELD   MOSUNNY   66  48  52 SW7       30.18F
RENTON         MOSUNNY   64  52  64 NE3       30.18F
SEATAC AIRPORT MOSUNNY   63  49  60 W5        30.20F
JBLM-MCCHORD   SUNNY     63  48  58 SW5       30.19F
PUYALLUP       NOT AVBL
JBLM-FT LEWIS  MOSUNNY   64  48  56 W6        30.18F
TACOMA NARROWS MOSUNNY   63  49  60 MISG      30.19F
$$

WAZ001-503-506-510-514-515-012300-
NORTH INTERIOR

CITY           SKY/WX    TMP DP  RH WIND       PRES   REMARKS
BELLINGHAM     MOSUNNY   61  49  64 S9        30.17F
FRIDAY HARBOR  SUNNY     65  44  46 SW9       30.17F
EASTSOUND      MOSUNNY   59  48  67 CALM      30.16F
PORT ANGELES   CLOUDY    59  46  62 NW12G17   30.20S
NAS WHIDBEY    PTSUNNY   63  46  54 SW10      30.19F
BURLINGTON     PTSUNNY   63  46  55 SW8       30.20S
$$

WAZ020-022-039-040-504-511-512-012300-
SOUTHWEST INTERIOR

CITY           SKY/WX    TMP DP  RH WIND       PRES   REMARKS
SHELTON        PTSUNNY   67  45  45 SW13      30.16F
OLYMPIA        PTSUNNY   64  46  52 W5        30.18F
CHEHALIS       FAIR      68  48  49 VRB5      30.18F
KELSO          CLOUDY    64  48  55 CALM      30.24S
VANCOUVER      MOSUNNY   66  45  46 NW10      30.19F
SCAPPOOSE, OR  PTSUNNY   64  47  53 E3        30.20F
PORTLAND, OR   PTSUNNY   65  46  50 SW5       30.20F
$$

WAZ021-516-517-012300-
WASHINGTON COAST

CITY           SKY/WX    TMP DP  RH WIND       PRES   REMARKS
FORKS          PTSUNNY   63  47  55 W9        30.21S HAZE
HOQUIAM        SUNNY     64  49  57 SW15      30.20F
ASTORIA, OR    MOSUNNY   64  50  60 NW10      30.20F
$$

WAZ019-023-024-040-518-519-012300-
CASCADE MOUNTAINS AND COLUMBIA GORGE

CITY           SKY/WX    TMP DP  RH WIND       PRES   REMARKS
STAMPEDE PASS  NOT AVBL
TROUTDALE, OR  CLOUDY    65  45  48 NW3       30.19F
THE DALLES, OR SUNNY     70  41  34 NW16      30.11F
$$

WAZ026-027-041>044-520-521-012300-
EAST SLOPES

CITY           SKY/WX    TMP DP  RH WIND       PRES   REMARKS
OMAK           SUNNY     70  33  25 S14       29.99F
WENATCHEE      SUNNY     69  34  27 S7        30.04F
ELLENSBURG     SUNNY     66  39  37 NW28      30.08S
YAKIMA         SUNNY     70  38  31 S6        30.08F
$$

WAZ028-034-035-012300-
COLUMBIA BASIN

CITY           SKY/WX    TMP DP  RH WIND       PRES   REMARKS
EPHRATA        SUNNY     68  35  29 SW8       30.04F
MOSES LAKE     SUNNY     70  36  28 SW12G20   30.05F
PASCO          SUNNY     69  42  37 S9        30.09F
HERMISTON, OR  SUNNY     70  38  31 W10G25    30.09F
$$

WAZ036>038-012300-
NORTHEAST WASHINGTON

CITY           SKY/WX    TMP DP  RH WIND       PRES   REMARKS
SPOKANE GEIGER PTSUNNY   62  33  33 SW20G28   30.06F
SPOKANE FELTS  PTSUNNY   63  34  33 W13G22    30.06F
FAIRCHILD AFB  PTSUNNY   61  33  33 SW16G23   30.06F
COEURDALENE,ID PTSUNNY   61  39  44 SW16      30.06F
DEER PARK      MOSUNNY   63  35  35 SW20      30.06F
$$

WAZ029>033-012300-
SOUTHEAST WASHINGTON

CITY           SKY/WX    TMP DP  RH WIND       PRES   REMARKS
PULLMAN        MOSUNNY   60  37  42 SW15      30.13F
LEWISTON, ID   MOSUNNY   67  37  33 VRB5      30.10F
WALLA WALLA    MOSUNNY   66  38  35 W9G20     30.11F
PENDLETON, OR  SUNNY     68  35  29 SW14      30.09F
$$



USA.gov is the U.S. government's official web portal to all federal, state and local government web resources and services.